Regional Weather Roundup
Issued by NWS Upton, NY

Current Version | Previous Version | Text Only | Print | Product List | Glossary Off
Versions: 1 2 3 4 5 6 7 8 9 10 11 12 13 14 15 16 17 18 19 20 21 22 23 24 25 26 27 28 29 30 31 32 33 34 35 36 37 38 39 40 41 42 43 44 45 46 47 48 49 50
236 ASUS41 KOKX 110008 RWROKX REGIONAL WEATHER ROUNDUP NATIONAL WEATHER SERVICE NEW YORK NY 700 PM EST SAT DEC 10 2016 NOTE: "FAIR" INDICATES FEW OR NO CLOUDS BELOW 12,000 FEET WITH NO SIGNIFICANT WEATHER AND/OR OBSTRUCTIONS TO VISIBILITY. NYZ071-072-176-178-NJZ106-104-110100- NEW YORK CITY METRO AREA CITY SKY/WX TMP DP RH WIND PRES REMARKS Central Park MOCLDY 33 19 56 VRB5 30.43R WCI 29 Wall St Helipt PTCLDY 35 21 56 VRB7 30.43R WCI 29 Bronx Bot Gard NOT AVBL LaGuardia APRT PTCLDY 35 20 54 W14 30.42R WCI 26 Kennedy INTL PTCLDY 35 15 44 W13 30.43R WCI 26 Breezy Point N/A 32 N/A N/A W10G17 N/A WCI 24 Newark/Liberty PTCLDY 32 16 51 W12 30.42R WCI 23 Teterboro CLOUDY 32 18 56 W8 30.42R WCI 25 $$ NYZ177-179-078>081-110100- LONG ISLAND NEW YORK CITY SKY/WX TMP DP RH WIND PRES REMARKS Jones Beach N/A 34 N/A N/A W12 N/A WCI 25 Matinecock PT NOT AVBL Farmingdale MOCLDY 33 18 53 NW8 30.42R WCI 26 MacArthur/ISP PTCLDY 28 18 66 W5 30.40R WCI 23 Shirley CLEAR 26 19 74 CALM 30.41R Westhampton NOT AVBL Southampton NOT AVBL Bridgehampton NOT AVBL East Hampton N/A 28 13 54 CALM 30.40R Montauk N/A 32 14 47 NW10G17 30.40R WCI 24 $$ NYZ052-065-067-110100- HUDSON VALLEY CITY SKY/WX TMP DP RH WIND PRES REMARKS White Plains PTCLDY 28 19 69 W3 30.38R Newburgh MOCLDY 23 21 93 W8 30.39R WCI 14 Montgomery CLEAR 22 18 85 SW5 30.38R WCI 16 Poughkeepsie CLEAR 24 15 68 CALM 30.39R Albany PTCLDY 19 12 74 SW5 30.39R WCI 12 $$ NJZ001-105-106-008-010-013-015-019>022-104-110100- NEW JERSEY CITY SKY/WX TMP DP RH WIND PRES REMARKS Newark/Liberty PTCLDY 32 16 51 W12 30.42R WCI 23 Teterboro CLOUDY 32 18 56 W8 30.42R WCI 25 Caldwell CLOUDY 31 20 63 NW5 30.43R WCI 26 Somerville CLEAR 27 14 58 VRB3 30.42R Linden N/A 31 16 52 W7 30.44R WCI 24 Sussex PTCLDY 25 20 81 CALM 30.40R Andover N/A 25 17 72 CALM 30.40R Trenton CLEAR 31 13 47 W5 30.44R WCI 26 Millville CLEAR 32 16 51 W9 30.47R WCI 24 Atlantic City MOCLDY 33 13 43 W8 30.46R WCI 26 Wrightstown CLEAR 30 13 49 NW7 30.42R WCI 23 Toms River CLEAR 27 16 63 W5 30.45R WCI 22 Belmar CLEAR 28 16 60 W5 30.44R WCI 23 $$ PAZ047>061-062-071-110100- EASTERN PENNSYLVANIA CITY SKY/WX TMP DP RH WIND PRES REMARKS Philadelphia CLEAR 33 13 43 W10 30.48R WCI 25 Allentown CLEAR 26 17 68 W8 30.43R WCI 18 Scranton CLOUDY 27 17 66 SW7 30.38R WCI 19 $$ CTZ002-004>006-009-010-012-RIZ004-006-007-MAZ004-011-015-110100- SOUTHERN NEW ENGLAND IN CT CITY SKY/WX TMP DP RH WIND PRES REMARKS Bradley INTL CLEAR 25 9 50 CALM 30.38R Hartford CLEAR 27 12 53 W3 30.40R Danbury CLEAR 23 15 71 SW3 30.39R Wtrbury/Oxford PTCLDY 25 10 54 CALM 30.37R Bridgeport CLEAR 30 16 56 W5 30.41R WCI 25 Meriden CLEAR 22 13 68 CALM 30.40R New Haven PTCLDY 29 15 56 N3 30.40R Chester N/A 25 10 54 CALM 30.38R Groton CLEAR 30 12 47 NW5 30.40R WCI 25 Wilimantic CLEAR 26 11 52 CALM 30.39R IN RI CITY SKY/WX TMP DP RH WIND PRES REMARKS Providence CLEAR 27 7 42 W7 30.38R WCI 19 Block Island CLEAR 30 15 53 NW12G18 30.39R WCI 20 Westerly CLEAR 28 9 44 CALM 30.40R IN MA CITY SKY/WX TMP DP RH WIND PRES REMARKS Boston CLEAR 25 5 42 NW10 30.38R WCI 15 Worcester CLEAR 20 3 48 CALM 30.31R Westfield CLEAR 19 11 70 CALM 30.37R Provincetown CLOUDY 29 12 49 NW18G29 30.36R WCI 16 Nantucket CLEAR 29 9 43 NW14G25 30.35R WCI 18 $$ ANZ330-335-338-340-345-350-353-355-110100- COASTAL MARINE OBSERVATIONS STATION/POSITION TIME SKY/WX TEMP WIND PRES VSBY WAVE AIR SEA DIR/SP/G HT/PER (UTC) (F) (DEG/KT/KT) (MB) (MI) (FT/S) NY HARB ENTRANCE 2250 36 51 280/ 17/ 21 1029.2 2/ 3 20 S FIRE ISLAND 2350 37 52 300/ 16/ 21 1029.4 3/ 5 GREAT SOUTH BAY 2330 34 39 N/A 23 SSW MONTAUK P 2250 36 54 290/ 16/ 21 1028.8 4/ 5 15 E BARNEGAT LI 2330 51 N/A 2/ 3 HUDSON CANYON 2250 40 55 1028.4 5/ 5 KINGS POINT 2348 33 45 1029.8 EXECUTION ROCKS 2345 34 270/ 10/ 14 N/A CENTRAL LI SOUND 2330 34 49 320/ 12/ 16 N/A 2/ 5 EASTERN LI SOUND NOT AVBL ROBBINS REEF 2348 33 280/ 10/ 12 1030.3 $$ >>>>>>>>>>>>>>>>>>>>>>>>>>>> KEY <<<<<<<<<<<<<<<<<<<<<<<<<<< > < > SKY/WX - Sky Condition/Present Weather < > TMP - Temperature in Fahrenheit < > DP - Dew Point in Fahrenheit < > RH - Relative Humidity in Percent < > WIND - Direction (from) and Speed in MPH < > PRES - Mean Sea Level Pressure (inches of Hg) < > WCI - Wind Chill Index < > VSB - VISIBILITY IN MILES < > HX - HEAT INDEX < > TC - TEMPERATURE IN CELSIUS < > VRB - VARIABLE WIND DIRECTION < > < >>>>>>>>>>>>>>>>>>>>>>>>>>>> KEY <<<<<<<<<<<<<<<<<<<<<<<<<<<

USA.gov is the U.S. government's official web portal to all federal, state and local government web resources and services.